GEFSSE_prec_meanprecacc_120.txt.gz
Total_Precipitation_Accumulation
0.01 0.03 0.11 0.14 0.11 0.10 0.11 0.10 0.09 0.09 0.12 0.13 0.14 0.14 0.15 0.15 0.16 0.15 0.16 0.16 0.15 0.16 0.19 0.21 0.22 0.23 0.22 0.23 0.27 0.28 0.26 0.25 0.20 0.16 0.17 0.18 0.16 0.13 0.13 0.13 0.10 0.17 0.21
0.02 0.04 0.08 0.10 0.08 0.09 0.09 0.08 0.07 0.07 0.09 0.10 0.10 0.09 0.09 0.10 0.11 0.13 0.14 0.15 0.16 0.16 0.16 0.16 0.17 0.18 0.18 0.22 0.30 0.30 0.25 0.20 0.16 0.13 0.12 0.10 0.13 0.15 0.14 0.14 0.13 0.19 0.19
0.01 0.02 0.05 0.07 0.07 0.08 0.08 0.07 0.06 0.05 0.06 0.07 0.07 0.06 0.06 0.08 0.09 0.10 0.12 0.15 0.18 0.20 0.16 0.14 0.15 0.17 0.21 0.27 0.27 0.28 0.27 0.20 0.12 0.11 0.09 0.14 0.18 0.18 0.18 0.16 0.13 0.15 0.16
0.00 0.01 0.02 0.05 0.07 0.08 0.07 0.06 0.05 0.05 0.05 0.06 0.06 0.05 0.06 0.06 0.06 0.08 0.10 0.15 0.19 0.25 0.29 0.26 0.22 0.23 0.28 0.30 0.23 0.23 0.28 0.24 0.13 0.08 0.05 0.14 0.29 0.33 0.26 0.23 0.16 0.16 0.18
0.00 0.00 0.01 0.05 0.07 0.08 0.07 0.06 0.05 0.05 0.06 0.06 0.05 0.05 0.05 0.05 0.05 0.06 0.07 0.11 0.16 0.22 0.27 0.29 0.27 0.28 0.28 0.25 0.20 0.21 0.34 0.35 0.21 0.05 0.05 0.08 0.22 0.46 0.30 0.27 0.22 0.19 0.18
0.00 0.00 0.01 0.05 0.07 0.08 0.08 0.07 0.06 0.06 0.06 0.07 0.06 0.07 0.07 0.06 0.05 0.05 0.05 0.06 0.08 0.13 0.19 0.23 0.24 0.27 0.30 0.29 0.24 0.27 0.42 0.49 0.24 0.08 0.09 0.11 0.21 0.41 0.32 0.29 0.26 0.21 0.19
0.00 0.00 0.01 0.05 0.07 0.08 0.09 0.09 0.09 0.09 0.09 0.08 0.09 0.09 0.09 0.07 0.06 0.06 0.07 0.06 0.05 0.05 0.10 0.17 0.22 0.26 0.31 0.31 0.31 0.40 0.52 0.51 0.25 0.23 0.15 0.12 0.23 0.39 0.39 0.34 0.30 0.25 0.23
0.00 0.01 0.01 0.04 0.07 0.08 0.10 0.11 0.11 0.11 0.12 0.11 0.11 0.12 0.10 0.09 0.10 0.10 0.10 0.09 0.07 0.06 0.06 0.09 0.14 0.21 0.25 0.26 0.32 0.45 0.51 0.34 0.13 0.10 0.08 0.09 0.21 0.40 0.58 0.53 0.40 0.32 0.28
0.00 0.00 0.01 0.02 0.05 0.07 0.09 0.11 0.12 0.13 0.13 0.12 0.12 0.12 0.09 0.08 0.09 0.12 0.14 0.11 0.09 0.09 0.08 0.07 0.08 0.11 0.14 0.18 0.25 0.29 0.27 0.19 0.09 0.13 0.10 0.14 0.21 0.47 0.76 0.73 0.55 0.40 0.34
0.00 0.00 0.00 0.01 0.02 0.04 0.06 0.10 0.13 0.14 0.14 0.12 0.12 0.10 0.08 0.07 0.08 0.09 0.09 0.08 0.09 0.10 0.09 0.07 0.08 0.08 0.08 0.09 0.13 0.15 0.13 0.11 0.06 0.12 0.18 0.19 0.18 0.47 0.82 0.83 0.70 0.54 0.44
0.00 0.00 0.00 0.01 0.02 0.02 0.03 0.07 0.11 0.13 0.12 0.11 0.10 0.10 0.08 0.05 0.04 0.05 0.05 0.04 0.07 0.08 0.08 0.08 0.08 0.08 0.06 0.04 0.05 0.07 0.06 0.04 0.09 0.16 0.19 0.16 0.20 0.48 0.83 0.88 0.79 0.66 0.58
0.00 0.00 0.01 0.01 0.01 0.02 0.02 0.05 0.08 0.08 0.09 0.09 0.08 0.08 0.08 0.07 0.05 0.05 0.05 0.06 0.08 0.08 0.08 0.10 0.10 0.07 0.06 0.06 0.08 0.09 0.03 0.03 0.08 0.09 0.10 0.10 0.23 0.50 0.79 0.90 0.89 0.78 0.73
0.00 0.00 0.01 0.02 0.02 0.02 0.02 0.03 0.05 0.06 0.08 0.09 0.10 0.12 0.16 0.16 0.14 0.12 0.13 0.13 0.11 0.10 0.13 0.16 0.17 0.15 0.18 0.19 0.21 0.16 0.10 0.07 0.06 0.06 0.04 0.06 0.15 0.35 0.64 0.85 0.95 0.94 0.94
0.00 0.00 0.01 0.01 0.02 0.02 0.02 0.03 0.04 0.05 0.06 0.09 0.11 0.13 0.16 0.19 0.19 0.18 0.18 0.18 0.16 0.16 0.17 0.22 0.24 0.23 0.21 0.20 0.23 0.21 0.20 0.16 0.10 0.08 0.05 0.06 0.08 0.15 0.32 0.57 0.79 0.95 1.04
0.00 0.00 0.00 0.01 0.02 0.02 0.02 0.02 0.03 0.03 0.04 0.05 0.06 0.07 0.08 0.11 0.12 0.13 0.12 0.11 0.11 0.13 0.14 0.15 0.17 0.19 0.20 0.19 0.19 0.21 0.23 0.22 0.18 0.15 0.12 0.11 0.08 0.09 0.16 0.29 0.51 0.82 1.02
0.00 0.00 0.00 0.01 0.01 0.02 0.02 0.02 0.02 0.03 0.03 0.03 0.03 0.04 0.04 0.04 0.04 0.03 0.03 0.03 0.03 0.03 0.04 0.05 0.05 0.06 0.08 0.13 0.14 0.14 0.15 0.17 0.21 0.23 0.22 0.21 0.13 0.11 0.14 0.21 0.33 0.55 0.85
0.00 0.00 0.00 0.01 0.01 0.02 0.02 0.02 0.02 0.03 0.03 0.03 0.02 0.02 0.02 0.01 0.01 0.01 0.01 0.01 0.01 0.01 0.01 0.02 0.02 0.02 0.03 0.07 0.10 0.12 0.10 0.12 0.16 0.23 0.25 0.26 0.23 0.18 0.17 0.20 0.26 0.38 0.61
0.00 0.00 0.00 0.00 0.01 0.01 0.02 0.03 0.03 0.03 0.03 0.03 0.03 0.02 0.02 0.01 0.01 0.01 0.02 0.02 0.02 0.01 0.02 0.02 0.03 0.04 0.05 0.06 0.10 0.15 0.14 0.13 0.15 0.21 0.27 0.27 0.27 0.24 0.21 0.20 0.26 0.36 0.51
0.00 0.00 0.00 0.00 0.00 0.01 0.02 0.02 0.03 0.04 0.04 0.04 0.03 0.03 0.03 0.02 0.02 0.02 0.03 0.03 0.03 0.04 0.04 0.04 0.04 0.06 0.09 0.10 0.14 0.17 0.19 0.17 0.16 0.19 0.24 0.30 0.32 0.30 0.31 0.24 0.23 0.31 0.44
0.00 0.00 0.00 0.00 0.00 0.01 0.02 0.03 0.03 0.03 0.03 0.03 0.04 0.04 0.03 0.03 0.03 0.03 0.03 0.03 0.03 0.04 0.04 0.05 0.07 0.09 0.11 0.12 0.14 0.15 0.20 0.24 0.24 0.23 0.29 0.40 0.40 0.34 0.34 0.34 0.29 0.24 0.28
0.00 0.00 0.00 0.00 0.00 0.01 0.02 0.03 0.03 0.03 0.02 0.02 0.02 0.03 0.02 0.02 0.02 0.03 0.03 0.03 0.03 0.05 0.05 0.06 0.07 0.07 0.06 0.07 0.11 0.11 0.14 0.17 0.18 0.19 0.24 0.38 0.51 0.54 0.49 0.48 0.47 0.39 0.30
0.00 0.00 0.00 0.00 0.00 0.00 0.01 0.01 0.01 0.01 0.01 0.01 0.01 0.01 0.01 0.01 0.01 0.01 0.01 0.02 0.02 0.02 0.02 0.02 0.03 0.04 0.03 0.03 0.07 0.13 0.10 0.09 0.13 0.14 0.13 0.22 0.34 0.43 0.47 0.50 0.55 0.57 0.48
0.00 0.00 0.00 0.00 0.00 0.00 0.00 0.01 0.01 0.01 0.00 0.00 0.00 0.00 0.00 0.00 0.00 0.00 0.00 0.00 0.01 0.01 0.01 0.01 0.02 0.04 0.06 0.04 0.06 0.21 0.28 0.18 0.11 0.06 0.08 0.13 0.16 0.20 0.25 0.32 0.41 0.46 0.53
0.00 0.00 0.00 0.00 0.00 0.00 0.00 0.01 0.01 0.00 0.00 0.00 0.00 0.00 0.00 0.00 0.00 0.00 0.00 0.00 0.01 0.01 0.01 0.02 0.02 0.04 0.08 0.09 0.07 0.10 0.19 0.23 0.28 0.15 0.03 0.03 0.03 0.05 0.07 0.12 0.20 0.28 0.37
0.00 0.00 0.00 0.00 0.00 0.00 0.00 0.00 0.00 0.00 0.00 0.00 0.00 0.00 0.00 0.00 0.00 0.00 0.00 0.01 0.01 0.01 0.02 0.03 0.03 0.05 0.08 0.12 0.13 0.13 0.12 0.12 0.17 0.27 0.13 0.03 0.03 0.03 0.04 0.05 0.08 0.13 0.21
0.00 0.00 0.00 0.00 0.00 0.00 0.00 0.00 0.00 0.00 0.00 0.00 0.00 0.00 0.00 0.01 0.01 0.00 0.01 0.01 0.01 0.02 0.03 0.04 0.06 0.07 0.09 0.11 0.14 0.17 0.22 0.24 0.19 0.25 0.21 0.07 0.03 0.03 0.04 0.05 0.05 0.07 0.12

GEFSSE_prec_meanprecacc_126.txt.gz
Total_Precipitation_Accumulation
0.01 0.03 0.11 0.15 0.12 0.12 0.13 0.11 0.10 0.10 0.13 0.15 0.15 0.16 0.16 0.16 0.16 0.16 0.16 0.16 0.16 0.17 0.20 0.22 0.23 0.24 0.23 0.24 0.27 0.28 0.26 0.25 0.20 0.16 0.17 0.19 0.17 0.14 0.13 0.13 0.10 0.17 0.21
0.02 0.04 0.08 0.10 0.09 0.11 0.12 0.09 0.08 0.08 0.10 0.11 0.11 0.10 0.10 0.11 0.12 0.13 0.15 0.15 0.16 0.16 0.17 0.17 0.18 0.19 0.19 0.23 0.31 0.30 0.25 0.20 0.16 0.13 0.12 0.10 0.14 0.15 0.15 0.15 0.13 0.20 0.20
0.01 0.03 0.05 0.07 0.08 0.10 0.10 0.08 0.07 0.07 0.07 0.08 0.08 0.07 0.07 0.08 0.09 0.11 0.12 0.15 0.19 0.20 0.16 0.14 0.16 0.18 0.22 0.28 0.28 0.28 0.27 0.20 0.12 0.11 0.09 0.14 0.19 0.19 0.19 0.16 0.13 0.15 0.17
0.00 0.01 0.02 0.05 0.07 0.09 0.09 0.07 0.06 0.07 0.07 0.07 0.06 0.06 0.06 0.06 0.07 0.08 0.10 0.15 0.19 0.25 0.29 0.27 0.22 0.23 0.28 0.30 0.23 0.23 0.28 0.24 0.13 0.08 0.05 0.14 0.29 0.33 0.27 0.23 0.16 0.16 0.18
0.00 0.00 0.01 0.05 0.08 0.09 0.09 0.07 0.06 0.07 0.07 0.07 0.06 0.06 0.06 0.05 0.05 0.06 0.07 0.11 0.16 0.22 0.27 0.29 0.27 0.28 0.28 0.25 0.20 0.21 0.34 0.35 0.21 0.05 0.05 0.08 0.22 0.46 0.30 0.27 0.23 0.19 0.18
0.00 0.00 0.01 0.05 0.08 0.09 0.09 0.08 0.08 0.07 0.07 0.07 0.07 0.07 0.07 0.06 0.05 0.05 0.05 0.06 0.08 0.13 0.19 0.23 0.24 0.27 0.30 0.29 0.24 0.27 0.42 0.49 0.24 0.08 0.09 0.11 0.21 0.41 0.32 0.29 0.26 0.21 0.19
0.00 0.00 0.01 0.05 0.08 0.09 0.10 0.10 0.10 0.10 0.09 0.09 0.09 0.10 0.09 0.07 0.06 0.06 0.07 0.06 0.05 0.05 0.10 0.17 0.22 0.26 0.31 0.31 0.31 0.40 0.52 0.51 0.25 0.23 0.15 0.12 0.23 0.39 0.39 0.34 0.30 0.25 0.23
0.00 0.01 0.01 0.05 0.07 0.09 0.10 0.11 0.12 0.12 0.12 0.12 0.12 0.12 0.11 0.09 0.10 0.10 0.10 0.09 0.07 0.06 0.06 0.09 0.14 0.21 0.25 0.26 0.32 0.45 0.51 0.34 0.13 0.10 0.08 0.09 0.21 0.40 0.58 0.53 0.40 0.32 0.28
0.00 0.00 0.01 0.03 0.05 0.08 0.10 0.11 0.13 0.14 0.14 0.13 0.13 0.12 0.10 0.08 0.09 0.12 0.14 0.11 0.09 0.09 0.08 0.07 0.08 0.11 0.14 0.18 0.25 0.29 0.27 0.19 0.09 0.13 0.10 0.14 0.21 0.47 0.76 0.73 0.55 0.40 0.34
0.00 0.00 0.00 0.02 0.03 0.04 0.06 0.10 0.13 0.15 0.14 0.13 0.13 0.11 0.08 0.07 0.08 0.09 0.09 0.08 0.09 0.10 0.09 0.07 0.08 0.08 0.08 0.09 0.13 0.15 0.13 0.11 0.06 0.12 0.18 0.19 0.18 0.47 0.82 0.83 0.70 0.54 0.45
0.00 0.00 0.01 0.02 0.02 0.03 0.04 0.07 0.11 0.13 0.13 0.12 0.11 0.10 0.08 0.05 0.04 0.05 0.05 0.04 0.07 0.08 0.08 0.08 0.08 0.08 0.06 0.04 0.05 0.07 0.06 0.04 0.09 0.16 0.19 0.16 0.20 0.48 0.83 0.88 0.79 0.67 0.59
0.00 0.00 0.01 0.02 0.02 0.02 0.03 0.05 0.09 0.09 0.09 0.09 0.09 0.09 0.08 0.07 0.05 0.05 0.05 0.06 0.08 0.08 0.08 0.10 0.10 0.07 0.06 0.06 0.08 0.09 0.03 0.03 0.08 0.09 0.10 0.10 0.23 0.50 0.79 0.90 0.89 0.79 0.74
0.00 0.00 0.01 0.02 0.02 0.02 0.03 0.04 0.06 0.07 0.09 0.10 0.10 0.13 0.16 0.17 0.14 0.12 0.13 0.13 0.11 0.10 0.13 0.16 0.17 0.15 0.18 0.19 0.21 0.16 0.10 0.07 0.06 0.06 0.04 0.06 0.15 0.35 0.64 0.85 0.95 0.94 0.94
0.00 0.00 0.01 0.02 0.02 0.02 0.02 0.03 0.04 0.05 0.07 0.10 0.12 0.13 0.16 0.19 0.19 0.18 0.19 0.18 0.16 0.16 0.18 0.22 0.24 0.23 0.21 0.20 0.23 0.21 0.20 0.16 0.10 0.08 0.05 0.06 0.08 0.15 0.32 0.57 0.80 0.96 1.04
0.00 0.00 0.01 0.01 0.02 0.02 0.02 0.03 0.03 0.04 0.05 0.06 0.07 0.07 0.09 0.11 0.13 0.13 0.12 0.11 0.11 0.13 0.14 0.16 0.17 0.19 0.20 0.19 0.19 0.21 0.23 0.22 0.18 0.15 0.12 0.11 0.08 0.09 0.16 0.29 0.51 0.82 1.02
0.00 0.00 0.00 0.01 0.02 0.02 0.02 0.02 0.03 0.03 0.03 0.03 0.04 0.04 0.04 0.04 0.05 0.04 0.04 0.03 0.03 0.04 0.04 0.05 0.05 0.06 0.09 0.13 0.14 0.14 0.15 0.17 0.21 0.23 0.22 0.21 0.13 0.11 0.14 0.21 0.33 0.56 0.85
0.00 0.00 0.00 0.01 0.01 0.02 0.03 0.03 0.03 0.03 0.03 0.04 0.03 0.02 0.02 0.02 0.02 0.02 0.02 0.01 0.01 0.01 0.01 0.02 0.02 0.02 0.03 0.07 0.10 0.12 0.10 0.12 0.16 0.23 0.25 0.26 0.23 0.18 0.17 0.20 0.27 0.38 0.62
0.00 0.00 0.00 0.00 0.01 0.02 0.03 0.03 0.03 0.04 0.04 0.04 0.03 0.03 0.02 0.02 0.01 0.02 0.02 0.03 0.02 0.02 0.02 0.02 0.03 0.04 0.05 0.07 0.11 0.15 0.14 0.13 0.15 0.21 0.27 0.27 0.27 0.24 0.21 0.20 0.26 0.37 0.51
0.00 0.00 0.00 0.00 0.01 0.01 0.03 0.03 0.04 0.04 0.05 0.05 0.04 0.04 0.03 0.03 0.02 0.02 0.03 0.04 0.04 0.04 0.04 0.05 0.04 0.07 0.09 0.11 0.14 0.17 0.19 0.18 0.16 0.19 0.24 0.30 0.32 0.30 0.31 0.24 0.23 0.31 0.44
0.00 0.00 0.00 0.00 0.00 0.01 0.03 0.04 0.04 0.04 0.04 0.04 0.05 0.05 0.04 0.04 0.03 0.03 0.04 0.04 0.04 0.05 0.05 0.06 0.08 0.09 0.11 0.13 0.14 0.15 0.20 0.24 0.24 0.23 0.29 0.40 0.40 0.34 0.34 0.34 0.29 0.24 0.28
0.00 0.00 0.00 0.00 0.00 0.01 0.03 0.04 0.04 0.04 0.03 0.03 0.03 0.03 0.03 0.03 0.04 0.04 0.04 0.04 0.04 0.05 0.06 0.06 0.07 0.07 0.07 0.08 0.11 0.12 0.14 0.17 0.18 0.19 0.24 0.38 0.51 0.54 0.49 0.48 0.47 0.39 0.30
0.00 0.00 0.00 0.00 0.00 0.01 0.01 0.02 0.02 0.02 0.02 0.02 0.02 0.02 0.02 0.02 0.02 0.02 0.03 0.03 0.02 0.02 0.02 0.02 0.03 0.04 0.03 0.03 0.07 0.13 0.10 0.09 0.13 0.14 0.13 0.22 0.34 0.43 0.47 0.50 0.55 0.57 0.48
0.00 0.00 0.00 0.00 0.00 0.00 0.01 0.01 0.01 0.02 0.01 0.01 0.01 0.01 0.01 0.01 0.01 0.01 0.01 0.01 0.01 0.01 0.01 0.01 0.02 0.04 0.06 0.04 0.07 0.21 0.28 0.18 0.11 0.06 0.08 0.13 0.16 0.20 0.25 0.32 0.41 0.46 0.53
0.00 0.00 0.00 0.00 0.00 0.00 0.01 0.01 0.01 0.01 0.01 0.00 0.00 0.00 0.00 0.00 0.00 0.00 0.00 0.00 0.01 0.01 0.01 0.02 0.02 0.04 0.08 0.09 0.07 0.10 0.19 0.23 0.28 0.15 0.03 0.03 0.03 0.05 0.07 0.12 0.20 0.28 0.37
0.00 0.00 0.00 0.00 0.00 0.00 0.00 0.01 0.01 0.01 0.00 0.00 0.00 0.00 0.00 0.00 0.00 0.00 0.00 0.01 0.01 0.01 0.02 0.03 0.04 0.05 0.08 0.12 0.13 0.13 0.12 0.12 0.17 0.27 0.13 0.03 0.03 0.03 0.04 0.05 0.08 0.13 0.21
0.00 0.00 0.00 0.00 0.00 0.00 0.00 0.00 0.01 0.00 0.00 0.00 0.00 0.00 0.01 0.01 0.01 0.00 0.01 0.01 0.01 0.02 0.03 0.04 0.06 0.07 0.09 0.11 0.14 0.17 0.22 0.24 0.19 0.25 0.21 0.07 0.03 0.03 0.04 0.05 0.05 0.07 0.12

GEFSSE_prec_meanprecacc_132.txt.gz
Total_Precipitation_Accumulation
0.01 0.04 0.12 0.16 0.13 0.13 0.14 0.12 0.11 0.11 0.14 0.16 0.17 0.17 0.17 0.17 0.17 0.17 0.17 0.18 0.17 0.18 0.21 0.23 0.24 0.25 0.24 0.24 0.28 0.28 0.26 0.25 0.20 0.17 0.18 0.20 0.18 0.15 0.13 0.13 0.10 0.17 0.22
0.02 0.04 0.09 0.11 0.11 0.12 0.13 0.10 0.09 0.09 0.11 0.12 0.11 0.10 0.10 0.11 0.13 0.14 0.16 0.16 0.17 0.17 0.17 0.18 0.19 0.19 0.19 0.23 0.31 0.31 0.25 0.20 0.16 0.14 0.12 0.11 0.14 0.16 0.15 0.15 0.14 0.20 0.20
0.01 0.03 0.06 0.08 0.09 0.12 0.12 0.09 0.08 0.08 0.08 0.09 0.08 0.07 0.07 0.08 0.09 0.11 0.13 0.15 0.19 0.20 0.16 0.15 0.16 0.18 0.22 0.28 0.28 0.28 0.27 0.20 0.12 0.11 0.09 0.14 0.19 0.19 0.19 0.16 0.13 0.16 0.17
0.00 0.01 0.02 0.06 0.08 0.11 0.10 0.08 0.07 0.08 0.08 0.08 0.07 0.06 0.06 0.06 0.07 0.08 0.10 0.15 0.20 0.25 0.29 0.27 0.22 0.23 0.29 0.30 0.23 0.23 0.28 0.24 0.13 0.08 0.05 0.14 0.29 0.33 0.27 0.23 0.17 0.16 0.18
0.00 0.00 0.02 0.05 0.08 0.10 0.10 0.09 0.07 0.07 0.08 0.07 0.06 0.06 0.06 0.05 0.05 0.06 0.07 0.11 0.16 0.22 0.27 0.29 0.27 0.28 0.28 0.25 0.20 0.21 0.34 0.35 0.21 0.05 0.05 0.08 0.22 0.46 0.30 0.27 0.23 0.19 0.18
0.00 0.00 0.01 0.05 0.09 0.10 0.10 0.09 0.08 0.08 0.08 0.07 0.07 0.08 0.07 0.06 0.05 0.05 0.05 0.06 0.08 0.13 0.20 0.23 0.24 0.27 0.30 0.29 0.24 0.27 0.42 0.49 0.24 0.08 0.09 0.11 0.21 0.41 0.32 0.29 0.26 0.21 0.19
0.00 0.00 0.01 0.05 0.09 0.10 0.10 0.11 0.11 0.10 0.09 0.09 0.09 0.10 0.09 0.07 0.06 0.06 0.07 0.06 0.05 0.05 0.10 0.17 0.22 0.26 0.31 0.31 0.31 0.40 0.52 0.51 0.25 0.23 0.15 0.12 0.23 0.39 0.39 0.34 0.30 0.25 0.23
0.00 0.01 0.01 0.05 0.08 0.09 0.11 0.12 0.12 0.13 0.12 0.12 0.12 0.12 0.11 0.09 0.10 0.10 0.10 0.09 0.07 0.06 0.06 0.09 0.14 0.21 0.25 0.26 0.32 0.45 0.51 0.34 0.13 0.10 0.08 0.09 0.21 0.40 0.58 0.53 0.40 0.32 0.28
0.00 0.00 0.01 0.03 0.06 0.08 0.10 0.12 0.13 0.14 0.14 0.13 0.14 0.12 0.10 0.08 0.09 0.12 0.14 0.11 0.09 0.09 0.08 0.07 0.08 0.11 0.14 0.18 0.25 0.29 0.27 0.19 0.09 0.13 0.10 0.14 0.21 0.48 0.76 0.73 0.55 0.41 0.34
0.00 0.00 0.00 0.02 0.03 0.05 0.07 0.11 0.13 0.15 0.15 0.13 0.13 0.11 0.08 0.07 0.08 0.09 0.09 0.08 0.09 0.10 0.09 0.07 0.08 0.08 0.08 0.09 0.13 0.15 0.13 0.11 0.06 0.12 0.18 0.19 0.18 0.47 0.83 0.83 0.70 0.54 0.45
0.00 0.00 0.01 0.02 0.02 0.03 0.04 0.07 0.12 0.14 0.13 0.12 0.11 0.10 0.08 0.05 0.04 0.05 0.05 0.04 0.07 0.08 0.08 0.08 0.08 0.08 0.06 0.04 0.05 0.07 0.06 0.04 0.09 0.16 0.19 0.16 0.20 0.48 0.83 0.89 0.80 0.67 0.59
0.00 0.00 0.01 0.02 0.02 0.02 0.03 0.05 0.09 0.09 0.10 0.09 0.09 0.09 0.08 0.07 0.05 0.05 0.05 0.06 0.08 0.08 0.08 0.10 0.10 0.07 0.06 0.06 0.08 0.09 0.03 0.03 0.08 0.09 0.10 0.10 0.23 0.50 0.79 0.90 0.89 0.79 0.74
0.00 0.00 0.01 0.02 0.02 0.02 0.03 0.04 0.06 0.07 0.09 0.10 0.10 0.13 0.16 0.17 0.14 0.12 0.13 0.13 0.11 0.10 0.13 0.16 0.17 0.15 0.18 0.19 0.21 0.16 0.10 0.07 0.06 0.06 0.04 0.06 0.15 0.36 0.65 0.86 0.96 0.95 0.95
0.00 0.00 0.01 0.02 0.02 0.02 0.02 0.03 0.04 0.05 0.07 0.10 0.12 0.13 0.16 0.19 0.19 0.18 0.19 0.18 0.16 0.16 0.18 0.22 0.24 0.23 0.21 0.20 0.23 0.21 0.20 0.16 0.10 0.08 0.05 0.06 0.08 0.15 0.32 0.57 0.80 0.96 1.05
0.00 0.00 0.01 0.01 0.02 0.02 0.02 0.03 0.03 0.04 0.05 0.06 0.07 0.08 0.09 0.11 0.13 0.13 0.12 0.11 0.11 0.13 0.14 0.16 0.17 0.19 0.20 0.19 0.19 0.21 0.23 0.22 0.18 0.15 0.12 0.11 0.08 0.09 0.16 0.29 0.51 0.82 1.03
0.00 0.00 0.00 0.01 0.02 0.02 0.02 0.03 0.03 0.03 0.03 0.03 0.04 0.04 0.04 0.04 0.05 0.04 0.04 0.03 0.03 0.04 0.04 0.05 0.05 0.06 0.09 0.13 0.14 0.14 0.15 0.17 0.21 0.23 0.22 0.21 0.13 0.11 0.14 0.21 0.33 0.56 0.86
0.00 0.00 0.00 0.01 0.01 0.02 0.03 0.03 0.03 0.03 0.04 0.04 0.03 0.02 0.02 0.02 0.02 0.02 0.02 0.01 0.01 0.01 0.01 0.02 0.02 0.02 0.03 0.07 0.10 0.12 0.10 0.12 0.16 0.23 0.25 0.26 0.23 0.18 0.17 0.20 0.27 0.39 0.62
0.00 0.00 0.00 0.00 0.01 0.02 0.03 0.03 0.04 0.04 0.04 0.04 0.03 0.03 0.02 0.02 0.01 0.02 0.02 0.03 0.02 0.02 0.02 0.03 0.03 0.04 0.05 0.07 0.11 0.15 0.14 0.13 0.15 0.21 0.27 0.27 0.27 0.24 0.21 0.20 0.26 0.37 0.51
0.00 0.00 0.00 0.00 0.01 0.01 0.03 0.03 0.04 0.04 0.05 0.05 0.04 0.04 0.03 0.03 0.02 0.02 0.03 0.04 0.04 0.04 0.04 0.05 0.04 0.07 0.09 0.11 0.14 0.17 0.19 0.18 0.16 0.19 0.24 0.30 0.32 0.30 0.31 0.24 0.23 0.32 0.44
0.00 0.00 0.00 0.00 0.00 0.01 0.03 0.04 0.04 0.04 0.04 0.04 0.05 0.05 0.04 0.04 0.03 0.04 0.04 0.04 0.04 0.05 0.05 0.06 0.08 0.10 0.11 0.13 0.14 0.15 0.20 0.24 0.24 0.23 0.29 0.40 0.40 0.34 0.34 0.34 0.29 0.24 0.28
0.00 0.00 0.00 0.00 0.00 0.01 0.03 0.04 0.04 0.04 0.04 0.03 0.03 0.03 0.04 0.04 0.04 0.05 0.05 0.04 0.04 0.05 0.06 0.06 0.07 0.07 0.07 0.08 0.11 0.12 0.14 0.17 0.18 0.19 0.24 0.38 0.51 0.54 0.49 0.48 0.47 0.39 0.30
0.00 0.00 0.00 0.00 0.00 0.01 0.01 0.02 0.02 0.02 0.02 0.02 0.02 0.02 0.02 0.02 0.03 0.03 0.03 0.03 0.02 0.02 0.02 0.02 0.03 0.04 0.03 0.03 0.07 0.13 0.10 0.09 0.13 0.14 0.13 0.22 0.34 0.43 0.47 0.50 0.55 0.57 0.48
0.00 0.00 0.00 0.00 0.00 0.00 0.01 0.01 0.02 0.02 0.01 0.01 0.02 0.02 0.01 0.01 0.01 0.01 0.01 0.01 0.01 0.01 0.02 0.02 0.02 0.05 0.06 0.04 0.07 0.21 0.28 0.18 0.11 0.06 0.08 0.13 0.16 0.20 0.25 0.32 0.41 0.46 0.53
0.00 0.00 0.00 0.00 0.00 0.00 0.01 0.01 0.01 0.01 0.01 0.01 0.01 0.00 0.01 0.01 0.01 0.01 0.01 0.01 0.01 0.01 0.02 0.02 0.03 0.04 0.08 0.09 0.07 0.10 0.19 0.23 0.28 0.15 0.03 0.03 0.03 0.05 0.07 0.12 0.20 0.28 0.37
0.00 0.00 0.00 0.00 0.00 0.00 0.01 0.01 0.01 0.01 0.00 0.00 0.00 0.01 0.01 0.01 0.01 0.01 0.01 0.01 0.01 0.02 0.02 0.03 0.04 0.05 0.08 0.12 0.13 0.13 0.12 0.12 0.17 0.27 0.13 0.03 0.03 0.03 0.04 0.05 0.08 0.13 0.21
0.00 0.00 0.00 0.00 0.00 0.00 0.00 0.01 0.01 0.01 0.00 0.00 0.01 0.01 0.01 0.01 0.01 0.01 0.01 0.02 0.02 0.02 0.03 0.04 0.06 0.07 0.09 0.11 0.15 0.17 0.22 0.24 0.19 0.25 0.21 0.07 0.03 0.03 0.04 0.05 0.05 0.07 0.12

GEFSSE_prec_meanprecacc_138.txt.gz
Total_Precipitation_Accumulation
0.01 0.04 0.14 0.17 0.15 0.14 0.15 0.13 0.12 0.13 0.15 0.18 0.17 0.18 0.17 0.18 0.18 0.18 0.19 0.19 0.18 0.19 0.22 0.24 0.25 0.25 0.24 0.25 0.28 0.29 0.27 0.26 0.21 0.17 0.18 0.20 0.18 0.15 0.13 0.13 0.10 0.18 0.22
0.02 0.04 0.10 0.13 0.12 0.13 0.14 0.11 0.10 0.10 0.12 0.13 0.12 0.11 0.11 0.12 0.14 0.16 0.17 0.17 0.18 0.18 0.19 0.19 0.19 0.20 0.20 0.23 0.31 0.31 0.25 0.20 0.16 0.14 0.12 0.11 0.15 0.16 0.15 0.15 0.14 0.20 0.20
0.01 0.03 0.07 0.10 0.11 0.13 0.13 0.10 0.09 0.09 0.09 0.09 0.09 0.07 0.08 0.09 0.10 0.12 0.13 0.16 0.19 0.21 0.17 0.15 0.17 0.19 0.22 0.28 0.28 0.28 0.27 0.20 0.12 0.11 0.09 0.14 0.19 0.19 0.19 0.17 0.13 0.16 0.17
0.00 0.01 0.03 0.08 0.10 0.12 0.11 0.09 0.08 0.08 0.08 0.08 0.07 0.06 0.06 0.07 0.07 0.09 0.11 0.15 0.20 0.25 0.29 0.27 0.23 0.24 0.29 0.31 0.23 0.24 0.28 0.24 0.13 0.08 0.05 0.14 0.29 0.33 0.27 0.23 0.17 0.16 0.18
0.00 0.00 0.02 0.07 0.10 0.12 0.11 0.10 0.08 0.08 0.08 0.08 0.06 0.06 0.06 0.05 0.05 0.06 0.07 0.11 0.17 0.22 0.27 0.29 0.27 0.28 0.28 0.25 0.20 0.21 0.34 0.35 0.21 0.05 0.05 0.08 0.22 0.46 0.30 0.27 0.23 0.19 0.18
0.00 0.00 0.02 0.06 0.10 0.11 0.11 0.10 0.09 0.08 0.08 0.08 0.07 0.08 0.07 0.06 0.05 0.05 0.05 0.06 0.08 0.13 0.20 0.23 0.24 0.27 0.31 0.29 0.24 0.28 0.42 0.49 0.24 0.08 0.09 0.11 0.21 0.41 0.32 0.29 0.26 0.22 0.19
0.00 0.01 0.01 0.06 0.10 0.11 0.12 0.12 0.12 0.11 0.10 0.09 0.10 0.10 0.10 0.08 0.06 0.06 0.07 0.06 0.05 0.05 0.10 0.17 0.22 0.26 0.31 0.31 0.31 0.40 0.52 0.51 0.25 0.23 0.15 0.12 0.23 0.39 0.39 0.34 0.30 0.25 0.23
0.00 0.01 0.02 0.06 0.09 0.11 0.12 0.13 0.13 0.13 0.13 0.12 0.13 0.13 0.11 0.09 0.10 0.10 0.10 0.09 0.07 0.06 0.06 0.09 0.14 0.21 0.25 0.26 0.32 0.45 0.51 0.34 0.13 0.10 0.08 0.09 0.21 0.40 0.58 0.53 0.40 0.33 0.29
0.00 0.00 0.01 0.03 0.07 0.09 0.11 0.13 0.14 0.15 0.14 0.13 0.14 0.13 0.10 0.08 0.09 0.12 0.14 0.11 0.09 0.09 0.08 0.07 0.08 0.11 0.14 0.18 0.25 0.29 0.27 0.19 0.09 0.13 0.10 0.14 0.21 0.48 0.77 0.73 0.55 0.41 0.35
0.00 0.00 0.01 0.02 0.03 0.05 0.07 0.12 0.14 0.15 0.15 0.14 0.14 0.11 0.08 0.07 0.08 0.09 0.09 0.08 0.09 0.10 0.09 0.07 0.08 0.08 0.08 0.09 0.13 0.15 0.13 0.11 0.06 0.12 0.18 0.19 0.18 0.47 0.83 0.84 0.71 0.55 0.46
0.00 0.00 0.01 0.02 0.02 0.03 0.05 0.08 0.12 0.14 0.14 0.12 0.11 0.10 0.08 0.05 0.04 0.05 0.05 0.04 0.07 0.08 0.08 0.08 0.09 0.08 0.07 0.04 0.05 0.07 0.06 0.04 0.09 0.16 0.19 0.16 0.20 0.48 0.83 0.89 0.80 0.68 0.60
0.00 0.01 0.01 0.02 0.02 0.03 0.03 0.06 0.09 0.09 0.10 0.09 0.09 0.09 0.08 0.07 0.05 0.05 0.05 0.06 0.08 0.08 0.08 0.10 0.11 0.08 0.06 0.06 0.08 0.09 0.03 0.03 0.08 0.09 0.10 0.10 0.23 0.50 0.80 0.91 0.90 0.80 0.75
0.00 0.01 0.01 0.02 0.02 0.03 0.03 0.04 0.06 0.07 0.09 0.10 0.10 0.13 0.16 0.17 0.14 0.12 0.13 0.13 0.11 0.10 0.13 0.16 0.17 0.15 0.18 0.19 0.21 0.16 0.10 0.07 0.06 0.06 0.04 0.06 0.15 0.36 0.65 0.86 0.96 0.96 0.96
0.00 0.00 0.01 0.02 0.03 0.02 0.02 0.03 0.04 0.05 0.07 0.10 0.12 0.13 0.16 0.19 0.19 0.18 0.19 0.18 0.16 0.16 0.18 0.22 0.24 0.23 0.21 0.20 0.23 0.21 0.20 0.16 0.10 0.08 0.05 0.06 0.08 0.15 0.32 0.57 0.81 0.97 1.06
0.00 0.00 0.01 0.01 0.02 0.03 0.02 0.03 0.03 0.04 0.05 0.06 0.07 0.08 0.09 0.11 0.13 0.13 0.12 0.11 0.11 0.13 0.14 0.16 0.17 0.19 0.20 0.19 0.19 0.21 0.23 0.22 0.18 0.15 0.12 0.11 0.08 0.09 0.16 0.29 0.52 0.83 1.04
0.00 0.00 0.00 0.01 0.02 0.02 0.02 0.03 0.03 0.03 0.03 0.03 0.04 0.04 0.04 0.04 0.05 0.04 0.04 0.03 0.03 0.04 0.04 0.05 0.05 0.06 0.09 0.13 0.14 0.14 0.15 0.17 0.21 0.23 0.22 0.21 0.13 0.11 0.14 0.21 0.34 0.56 0.86
0.00 0.00 0.00 0.01 0.01 0.02 0.03 0.03 0.03 0.03 0.04 0.04 0.03 0.02 0.02 0.02 0.02 0.02 0.02 0.01 0.01 0.01 0.01 0.02 0.02 0.02 0.03 0.07 0.10 0.12 0.10 0.12 0.16 0.23 0.25 0.26 0.23 0.18 0.17 0.20 0.27 0.39 0.62
0.00 0.00 0.00 0.00 0.01 0.02 0.03 0.03 0.04 0.04 0.04 0.04 0.03 0.03 0.02 0.02 0.01 0.02 0.02 0.03 0.02 0.02 0.02 0.03 0.03 0.04 0.05 0.07 0.11 0.15 0.14 0.13 0.15 0.21 0.27 0.27 0.27 0.24 0.21 0.20 0.26 0.37 0.51
0.00 0.00 0.00 0.00 0.01 0.01 0.03 0.03 0.04 0.04 0.05 0.05 0.05 0.04 0.03 0.03 0.02 0.02 0.03 0.04 0.04 0.04 0.05 0.05 0.04 0.07 0.09 0.11 0.14 0.17 0.19 0.18 0.16 0.19 0.24 0.30 0.32 0.30 0.31 0.24 0.23 0.32 0.44
0.00 0.00 0.00 0.00 0.00 0.01 0.03 0.04 0.05 0.05 0.05 0.05 0.05 0.05 0.04 0.04 0.03 0.04 0.04 0.04 0.04 0.05 0.06 0.06 0.08 0.10 0.11 0.13 0.14 0.15 0.20 0.24 0.24 0.23 0.29 0.40 0.40 0.34 0.34 0.34 0.29 0.24 0.28
0.00 0.00 0.00 0.00 0.00 0.01 0.03 0.04 0.05 0.04 0.04 0.04 0.04 0.03 0.04 0.04 0.04 0.05 0.05 0.04 0.05 0.06 0.06 0.06 0.07 0.07 0.07 0.08 0.11 0.12 0.14 0.17 0.18 0.19 0.24 0.38 0.51 0.54 0.49 0.48 0.47 0.39 0.30
0.00 0.00 0.00 0.00 0.00 0.01 0.01 0.02 0.02 0.02 0.02 0.02 0.02 0.03 0.02 0.02 0.03 0.03 0.04 0.03 0.03 0.03 0.02 0.02 0.03 0.04 0.04 0.03 0.08 0.13 0.10 0.09 0.13 0.14 0.13 0.22 0.34 0.43 0.47 0.50 0.55 0.57 0.48
0.00 0.00 0.00 0.00 0.00 0.00 0.01 0.01 0.02 0.02 0.02 0.02 0.02 0.02 0.01 0.02 0.02 0.02 0.01 0.02 0.02 0.01 0.02 0.02 0.03 0.05 0.06 0.04 0.07 0.21 0.29 0.18 0.11 0.06 0.08 0.13 0.16 0.20 0.25 0.32 0.41 0.46 0.53
0.00 0.00 0.00 0.00 0.00 0.00 0.01 0.01 0.01 0.01 0.01 0.01 0.01 0.01 0.01 0.02 0.02 0.02 0.01 0.02 0.02 0.02 0.02 0.03 0.03 0.05 0.09 0.10 0.07 0.10 0.19 0.23 0.28 0.15 0.03 0.03 0.03 0.05 0.07 0.12 0.20 0.28 0.37
0.00 0.00 0.00 0.00 0.00 0.00 0.01 0.01 0.01 0.01 0.00 0.00 0.00 0.01 0.01 0.01 0.02 0.02 0.02 0.02 0.02 0.03 0.03 0.04 0.05 0.06 0.09 0.13 0.14 0.13 0.13 0.12 0.17 0.27 0.13 0.03 0.03 0.03 0.04 0.05 0.08 0.13 0.21
0.00 0.00 0.00 0.00 0.00 0.00 0.01 0.01 0.01 0.01 0.00 0.00 0.01 0.01 0.02 0.02 0.02 0.02 0.02 0.03 0.03 0.03 0.04 0.06 0.07 0.08 0.09 0.12 0.15 0.17 0.22 0.24 0.19 0.25 0.22 0.07 0.03 0.03 0.04 0.05 0.05 0.07 0.12

GEFSSE_prec_meanprecacc_144.txt.gz
Total_Precipitation_Accumulation
0.01 0.04 0.15 0.18 0.15 0.15 0.16 0.14 0.13 0.14 0.16 0.18 0.18 0.19 0.18 0.19 0.19 0.19 0.19 0.19 0.18 0.20 0.23 0.26 0.26 0.26 0.25 0.25 0.29 0.29 0.27 0.26 0.21 0.17 0.18 0.21 0.19 0.15 0.14 0.13 0.10 0.18 0.22
0.02 0.04 0.12 0.13 0.13 0.14 0.15 0.12 0.11 0.11 0.13 0.14 0.13 0.12 0.12 0.13 0.15 0.16 0.17 0.17 0.18 0.19 0.20 0.21 0.20 0.20 0.20 0.24 0.32 0.31 0.26 0.20 0.16 0.14 0.12 0.11 0.15 0.16 0.15 0.15 0.14 0.20 0.21
0.01 0.03 0.08 0.11 0.12 0.14 0.14 0.11 0.10 0.10 0.10 0.10 0.09 0.08 0.08 0.10 0.11 0.12 0.14 0.16 0.20 0.21 0.18 0.17 0.17 0.19 0.23 0.28 0.28 0.28 0.27 0.20 0.12 0.11 0.09 0.14 0.19 0.19 0.19 0.17 0.13 0.16 0.17
0.00 0.01 0.03 0.09 0.11 0.14 0.13 0.10 0.09 0.09 0.09 0.08 0.07 0.07 0.07 0.07 0.07 0.09 0.11 0.16 0.20 0.26 0.29 0.28 0.23 0.24 0.29 0.31 0.23 0.24 0.29 0.24 0.13 0.08 0.05 0.14 0.29 0.33 0.27 0.23 0.17 0.16 0.19
0.00 0.01 0.02 0.08 0.11 0.13 0.12 0.10 0.09 0.08 0.08 0.08 0.06 0.06 0.06 0.05 0.05 0.06 0.07 0.11 0.17 0.22 0.27 0.30 0.27 0.29 0.29 0.26 0.20 0.22 0.34 0.35 0.21 0.05 0.05 0.08 0.22 0.46 0.30 0.27 0.23 0.19 0.18
0.00 0.01 0.02 0.08 0.11 0.13 0.12 0.11 0.10 0.09 0.08 0.08 0.08 0.08 0.07 0.06 0.05 0.05 0.05 0.06 0.08 0.13 0.20 0.23 0.24 0.27 0.31 0.29 0.24 0.28 0.42 0.49 0.24 0.08 0.09 0.11 0.21 0.42 0.32 0.29 0.26 0.22 0.19
0.00 0.01 0.02 0.08 0.12 0.13 0.13 0.13 0.12 0.11 0.10 0.09 0.10 0.11 0.10 0.08 0.06 0.06 0.07 0.06 0.05 0.05 0.11 0.17 0.22 0.26 0.31 0.31 0.31 0.40 0.52 0.51 0.25 0.23 0.15 0.12 0.23 0.39 0.40 0.34 0.30 0.26 0.24
0.00 0.01 0.02 0.08 0.11 0.12 0.13 0.14 0.14 0.14 0.13 0.12 0.13 0.13 0.11 0.10 0.10 0.10 0.11 0.09 0.07 0.06 0.07 0.09 0.14 0.21 0.25 0.26 0.32 0.45 0.51 0.34 0.13 0.10 0.08 0.09 0.21 0.41 0.59 0.53 0.41 0.33 0.30
0.00 0.00 0.02 0.05 0.08 0.11 0.12 0.14 0.15 0.15 0.15 0.14 0.14 0.13 0.10 0.08 0.09 0.12 0.14 0.11 0.09 0.09 0.08 0.07 0.08 0.11 0.14 0.18 0.25 0.29 0.27 0.19 0.09 0.13 0.10 0.14 0.21 0.48 0.77 0.74 0.56 0.42 0.36
0.00 0.00 0.01 0.04 0.05 0.07 0.09 0.13 0.15 0.16 0.16 0.14 0.14 0.12 0.08 0.07 0.08 0.09 0.09 0.08 0.09 0.10 0.09 0.07 0.08 0.08 0.08 0.10 0.13 0.15 0.13 0.11 0.06 0.12 0.18 0.19 0.18 0.47 0.83 0.84 0.71 0.56 0.47
0.01 0.00 0.01 0.03 0.03 0.05 0.06 0.09 0.13 0.15 0.14 0.13 0.12 0.10 0.08 0.05 0.05 0.05 0.05 0.04 0.07 0.08 0.08 0.08 0.09 0.08 0.07 0.04 0.05 0.07 0.06 0.04 0.09 0.16 0.19 0.16 0.20 0.48 0.84 0.90 0.81 0.69 0.61
0.01 0.01 0.01 0.02 0.03 0.04 0.04 0.07 0.11 0.10 0.11 0.10 0.09 0.09 0.08 0.07 0.05 0.05 0.05 0.06 0.08 0.08 0.08 0.11 0.11 0.08 0.06 0.06 0.08 0.09 0.04 0.03 0.08 0.09 0.10 0.10 0.23 0.51 0.80 0.92 0.91 0.81 0.76
0.00 0.01 0.01 0.02 0.03 0.03 0.03 0.05 0.07 0.08 0.10 0.11 0.11 0.13 0.16 0.17 0.14 0.12 0.13 0.13 0.11 0.10 0.14 0.16 0.17 0.15 0.18 0.19 0.21 0.16 0.10 0.07 0.06 0.06 0.04 0.06 0.15 0.36 0.66 0.87 0.97 0.96 0.96
0.00 0.00 0.01 0.02 0.03 0.03 0.02 0.04 0.05 0.06 0.07 0.10 0.12 0.13 0.16 0.19 0.19 0.18 0.19 0.18 0.16 0.16 0.18 0.22 0.24 0.23 0.21 0.20 0.23 0.21 0.20 0.16 0.10 0.08 0.05 0.06 0.08 0.16 0.33 0.58 0.81 0.98 1.06
0.00 0.00 0.01 0.02 0.03 0.03 0.03 0.03 0.04 0.04 0.05 0.06 0.07 0.08 0.09 0.11 0.13 0.13 0.12 0.11 0.11 0.13 0.14 0.16 0.17 0.19 0.20 0.19 0.19 0.21 0.23 0.22 0.18 0.15 0.12 0.11 0.08 0.09 0.17 0.30 0.52 0.83 1.04
0.00 0.00 0.00 0.01 0.02 0.03 0.03 0.03 0.03 0.03 0.04 0.04 0.04 0.04 0.04 0.04 0.05 0.04 0.04 0.03 0.03 0.04 0.05 0.05 0.05 0.06 0.09 0.13 0.14 0.14 0.15 0.17 0.21 0.23 0.22 0.21 0.13 0.11 0.14 0.21 0.34 0.56 0.86
0.00 0.00 0.00 0.01 0.02 0.03 0.03 0.03 0.03 0.03 0.04 0.04 0.03 0.02 0.02 0.02 0.02 0.02 0.02 0.01 0.01 0.01 0.01 0.02 0.02 0.02 0.03 0.07 0.10 0.12 0.10 0.12 0.16 0.23 0.25 0.26 0.23 0.18 0.17 0.20 0.27 0.39 0.62
0.00 0.00 0.00 0.00 0.01 0.02 0.03 0.04 0.04 0.04 0.04 0.04 0.03 0.03 0.02 0.02 0.01 0.02 0.02 0.03 0.02 0.02 0.02 0.03 0.03 0.04 0.05 0.07 0.11 0.15 0.14 0.13 0.15 0.21 0.27 0.27 0.27 0.24 0.21 0.20 0.26 0.37 0.51
0.00 0.00 0.00 0.00 0.01 0.02 0.03 0.04 0.04 0.05 0.05 0.05 0.05 0.04 0.04 0.03 0.02 0.02 0.03 0.04 0.04 0.04 0.05 0.05 0.04 0.07 0.09 0.11 0.14 0.17 0.19 0.18 0.16 0.19 0.24 0.30 0.32 0.30 0.31 0.24 0.23 0.32 0.45
0.00 0.00 0.00 0.00 0.00 0.02 0.03 0.05 0.05 0.05 0.05 0.05 0.05 0.05 0.04 0.04 0.04 0.04 0.04 0.04 0.04 0.05 0.06 0.06 0.08 0.10 0.11 0.13 0.14 0.15 0.20 0.24 0.24 0.23 0.29 0.40 0.40 0.34 0.34 0.34 0.29 0.24 0.28
0.00 0.00 0.00 0.00 0.00 0.01 0.03 0.05 0.05 0.05 0.04 0.04 0.04 0.04 0.04 0.04 0.04 0.05 0.05 0.04 0.05 0.06 0.07 0.06 0.07 0.07 0.07 0.08 0.11 0.12 0.14 0.17 0.18 0.19 0.24 0.38 0.51 0.54 0.49 0.48 0.47 0.39 0.30
0.00 0.00 0.00 0.00 0.00 0.01 0.01 0.02 0.02 0.02 0.02 0.02 0.02 0.03 0.03 0.03 0.03 0.04 0.04 0.04 0.03 0.03 0.03 0.03 0.03 0.04 0.04 0.03 0.08 0.13 0.10 0.09 0.13 0.14 0.13 0.22 0.34 0.43 0.47 0.50 0.55 0.57 0.48
0.00 0.00 0.00 0.00 0.00 0.01 0.01 0.02 0.02 0.02 0.02 0.02 0.02 0.02 0.02 0.02 0.02 0.02 0.02 0.02 0.02 0.02 0.02 0.02 0.03 0.05 0.07 0.04 0.07 0.21 0.29 0.18 0.11 0.06 0.08 0.13 0.16 0.20 0.25 0.32 0.41 0.46 0.53
0.00 0.00 0.00 0.00 0.00 0.00 0.01 0.01 0.02 0.01 0.01 0.01 0.01 0.01 0.02 0.02 0.02 0.03 0.03 0.02 0.03 0.03 0.03 0.04 0.04 0.05 0.09 0.10 0.07 0.10 0.19 0.23 0.29 0.15 0.03 0.03 0.03 0.05 0.07 0.12 0.20 0.28 0.37
0.00 0.00 0.00 0.00 0.00 0.00 0.01 0.01 0.01 0.01 0.01 0.00 0.01 0.01 0.01 0.02 0.02 0.02 0.02 0.03 0.03 0.04 0.04 0.05 0.06 0.07 0.10 0.13 0.14 0.14 0.13 0.12 0.18 0.28 0.13 0.03 0.03 0.03 0.04 0.05 0.08 0.13 0.21
0.00 0.00 0.00 0.00 0.00 0.00 0.01 0.01 0.01 0.01 0.00 0.01 0.01 0.01 0.02 0.02 0.02 0.02 0.02 0.03 0.03 0.04 0.05 0.06 0.08 0.09 0.10 0.13 0.16 0.18 0.22 0.24 0.19 0.26 0.22 0.07 0.03 0.03 0.04 0.05 0.05 0.07 0.12

GEFSSE_prec_meanprecacc_150.txt.gz
Total_Precipitation_Accumulation
0.01 0.04 0.15 0.19 0.16 0.15 0.17 0.16 0.14 0.14 0.17 0.19 0.19 0.20 0.19 0.19 0.19 0.19 0.19 0.19 0.19 0.21 0.25 0.27 0.27 0.27 0.26 0.26 0.29 0.30 0.28 0.26 0.21 0.17 0.19 0.21 0.19 0.16 0.14 0.13 0.11 0.18 0.22
0.02 0.04 0.12 0.14 0.13 0.15 0.17 0.14 0.12 0.12 0.14 0.14 0.13 0.12 0.13 0.14 0.15 0.17 0.18 0.18 0.19 0.20 0.22 0.22 0.21 0.21 0.21 0.24 0.32 0.31 0.26 0.20 0.16 0.14 0.12 0.11 0.15 0.16 0.15 0.15 0.14 0.20 0.21
0.01 0.03 0.08 0.11 0.12 0.15 0.15 0.12 0.11 0.10 0.10 0.10 0.09 0.09 0.09 0.11 0.12 0.13 0.14 0.17 0.20 0.22 0.20 0.19 0.18 0.19 0.23 0.29 0.28 0.29 0.27 0.20 0.12 0.11 0.09 0.14 0.19 0.20 0.20 0.17 0.14 0.16 0.17
0.00 0.01 0.03 0.09 0.12 0.15 0.13 0.11 0.10 0.10 0.09 0.09 0.07 0.07 0.08 0.08 0.08 0.10 0.12 0.16 0.20 0.26 0.30 0.28 0.23 0.24 0.29 0.31 0.24 0.24 0.29 0.24 0.13 0.08 0.05 0.14 0.29 0.33 0.27 0.23 0.17 0.17 0.19
0.00 0.01 0.03 0.08 0.12 0.14 0.13 0.11 0.10 0.09 0.09 0.08 0.07 0.07 0.07 0.06 0.06 0.06 0.08 0.12 0.17 0.22 0.28 0.30 0.28 0.29 0.29 0.26 0.21 0.22 0.34 0.35 0.21 0.05 0.05 0.08 0.22 0.47 0.30 0.27 0.23 0.20 0.19
0.00 0.01 0.02 0.08 0.12 0.14 0.13 0.12 0.11 0.09 0.09 0.08 0.08 0.09 0.08 0.06 0.05 0.05 0.05 0.06 0.08 0.13 0.20 0.24 0.25 0.28 0.31 0.29 0.24 0.28 0.42 0.49 0.24 0.08 0.09 0.11 0.21 0.42 0.33 0.29 0.26 0.22 0.20
0.00 0.01 0.02 0.08 0.13 0.14 0.14 0.13 0.13 0.12 0.10 0.10 0.10 0.11 0.10 0.08 0.07 0.06 0.07 0.06 0.05 0.06 0.11 0.17 0.22 0.26 0.31 0.31 0.31 0.40 0.52 0.51 0.25 0.23 0.15 0.12 0.23 0.40 0.40 0.35 0.31 0.26 0.25
0.00 0.01 0.03 0.09 0.12 0.13 0.13 0.14 0.15 0.14 0.14 0.13 0.13 0.14 0.12 0.10 0.10 0.10 0.11 0.09 0.07 0.06 0.07 0.09 0.14 0.21 0.25 0.26 0.32 0.45 0.51 0.34 0.13 0.10 0.08 0.09 0.21 0.41 0.59 0.54 0.42 0.34 0.31
0.00 0.01 0.02 0.06 0.09 0.12 0.13 0.14 0.16 0.16 0.15 0.14 0.15 0.13 0.10 0.08 0.10 0.12 0.14 0.11 0.09 0.09 0.08 0.07 0.08 0.11 0.14 0.18 0.25 0.29 0.27 0.19 0.09 0.13 0.10 0.14 0.21 0.48 0.77 0.74 0.57 0.43 0.37
0.00 0.01 0.02 0.04 0.06 0.07 0.09 0.13 0.16 0.17 0.16 0.15 0.14 0.12 0.08 0.07 0.08 0.09 0.09 0.08 0.09 0.10 0.10 0.07 0.08 0.08 0.08 0.10 0.13 0.15 0.13 0.11 0.06 0.12 0.18 0.19 0.18 0.48 0.84 0.85 0.72 0.57 0.48
0.01 0.01 0.02 0.04 0.04 0.05 0.06 0.09 0.14 0.16 0.15 0.14 0.12 0.10 0.08 0.05 0.05 0.05 0.05 0.05 0.07 0.08 0.08 0.09 0.09 0.08 0.07 0.04 0.05 0.07 0.06 0.04 0.09 0.16 0.19 0.16 0.20 0.49 0.85 0.91 0.82 0.70 0.62
0.01 0.01 0.02 0.03 0.04 0.05 0.05 0.07 0.12 0.11 0.11 0.10 0.09 0.09 0.08 0.07 0.05 0.05 0.05 0.06 0.08 0.08 0.08 0.11 0.11 0.08 0.06 0.06 0.08 0.09 0.04 0.03 0.08 0.09 0.10 0.10 0.23 0.51 0.81 0.93 0.92 0.82 0.77
0.00 0.01 0.02 0.03 0.04 0.04 0.04 0.05 0.08 0.09 0.11 0.11 0.11 0.13 0.16 0.17 0.14 0.12 0.13 0.13 0.11 0.10 0.14 0.17 0.17 0.15 0.18 0.19 0.21 0.16 0.10 0.07 0.06 0.06 0.04 0.06 0.15 0.36 0.66 0.87 0.97 0.97 0.97
0.00 0.00 0.01 0.03 0.04 0.04 0.03 0.04 0.06 0.07 0.08 0.11 0.12 0.13 0.16 0.19 0.19 0.18 0.19 0.18 0.16 0.16 0.18 0.22 0.24 0.23 0.21 0.20 0.23 0.21 0.20 0.16 0.10 0.08 0.05 0.06 0.08 0.16 0.33 0.58 0.81 0.98 1.06
0.00 0.00 0.01 0.02 0.04 0.04 0.04 0.04 0.04 0.05 0.05 0.06 0.07 0.08 0.09 0.11 0.13 0.13 0.12 0.11 0.12 0.13 0.14 0.16 0.17 0.19 0.20 0.19 0.19 0.21 0.23 0.22 0.18 0.15 0.12 0.11 0.08 0.09 0.17 0.30 0.52 0.83 1.04
0.00 0.00 0.00 0.01 0.03 0.04 0.03 0.03 0.03 0.04 0.04 0.04 0.04 0.04 0.04 0.04 0.05 0.04 0.04 0.03 0.03 0.04 0.05 0.05 0.05 0.06 0.09 0.13 0.14 0.14 0.15 0.17 0.21 0.23 0.22 0.21 0.13 0.11 0.14 0.21 0.34 0.56 0.86
0.00 0.00 0.00 0.01 0.02 0.03 0.04 0.04 0.03 0.04 0.04 0.04 0.03 0.02 0.02 0.02 0.02 0.02 0.02 0.02 0.01 0.01 0.01 0.02 0.02 0.02 0.03 0.07 0.10 0.12 0.10 0.12 0.16 0.23 0.25 0.26 0.23 0.18 0.17 0.20 0.27 0.39 0.62
0.00 0.00 0.00 0.00 0.01 0.02 0.03 0.04 0.04 0.04 0.04 0.04 0.04 0.03 0.02 0.02 0.01 0.02 0.02 0.03 0.02 0.02 0.02 0.03 0.03 0.04 0.06 0.07 0.11 0.15 0.14 0.13 0.15 0.21 0.27 0.27 0.27 0.24 0.21 0.20 0.26 0.37 0.51
0.00 0.00 0.00 0.00 0.01 0.02 0.03 0.04 0.04 0.05 0.05 0.05 0.05 0.04 0.04 0.03 0.02 0.02 0.03 0.04 0.04 0.05 0.05 0.05 0.04 0.07 0.09 0.11 0.15 0.17 0.19 0.18 0.16 0.19 0.24 0.30 0.32 0.30 0.31 0.24 0.23 0.32 0.45
0.00 0.00 0.00 0.00 0.01 0.02 0.04 0.05 0.05 0.05 0.05 0.05 0.05 0.05 0.04 0.04 0.04 0.04 0.04 0.04 0.04 0.05 0.06 0.07 0.08 0.10 0.11 0.13 0.14 0.15 0.20 0.24 0.24 0.23 0.29 0.40 0.40 0.34 0.34 0.34 0.29 0.24 0.28
0.00 0.00 0.00 0.00 0.01 0.01 0.03 0.05 0.06 0.05 0.04 0.04 0.04 0.04 0.04 0.04 0.04 0.05 0.05 0.04 0.05 0.06 0.07 0.07 0.07 0.07 0.07 0.08 0.11 0.12 0.14 0.17 0.18 0.19 0.24 0.38 0.51 0.54 0.49 0.48 0.47 0.39 0.30
0.00 0.00 0.00 0.00 0.00 0.01 0.01 0.02 0.02 0.02 0.02 0.02 0.03 0.03 0.03 0.03 0.03 0.04 0.04 0.04 0.04 0.04 0.03 0.03 0.04 0.05 0.04 0.03 0.08 0.13 0.10 0.09 0.13 0.14 0.13 0.22 0.34 0.43 0.47 0.50 0.55 0.57 0.48
0.00 0.00 0.00 0.00 0.00 0.01 0.01 0.02 0.02 0.03 0.02 0.02 0.02 0.02 0.02 0.02 0.02 0.02 0.02 0.03 0.02 0.02 0.03 0.03 0.03 0.05 0.07 0.05 0.07 0.22 0.29 0.18 0.11 0.06 0.08 0.13 0.16 0.20 0.25 0.32 0.41 0.46 0.53
0.00 0.00 0.00 0.00 0.00 0.00 0.01 0.01 0.02 0.02 0.01 0.01 0.01 0.01 0.02 0.02 0.03 0.03 0.03 0.03 0.03 0.03 0.03 0.04 0.04 0.06 0.10 0.10 0.07 0.11 0.19 0.24 0.29 0.15 0.03 0.03 0.03 0.05 0.07 0.12 0.20 0.28 0.37
0.00 0.00 0.00 0.00 0.00 0.00 0.01 0.01 0.01 0.01 0.01 0.00 0.01 0.01 0.02 0.02 0.02 0.02 0.03 0.03 0.03 0.04 0.04 0.05 0.06 0.07 0.10 0.14 0.15 0.14 0.13 0.13 0.18 0.28 0.13 0.03 0.03 0.04 0.04 0.06 0.08 0.13 0.21
0.00 0.00 0.00 0.00 0.00 0.00 0.01 0.01 0.01 0.01 0.01 0.01 0.01 0.02 0.02 0.02 0.03 0.02 0.02 0.03 0.04 0.04 0.05 0.06 0.08 0.09 0.11 0.13 0.16 0.19 0.23 0.25 0.20 0.26 0.22 0.07 0.03 0.03 0.04 0.05 0.05 0.07 0.12

GEFSSE_prec_meanprecacc_156.txt.gz
Total_Precipitation_Accumulation
0.01 0.04 0.16 0.20 0.17 0.17 0.18 0.17 0.15 0.15 0.17 0.19 0.20 0.20 0.20 0.20 0.20 0.20 0.20 0.20 0.20 0.22 0.26 0.28 0.28 0.29 0.27 0.27 0.30 0.30 0.28 0.26 0.21 0.18 0.19 0.21 0.20 0.16 0.14 0.14 0.11 0.18 0.23
0.02 0.04 0.13 0.15 0.15 0.17 0.18 0.15 0.13 0.13 0.14 0.15 0.14 0.13 0.13 0.15 0.16 0.17 0.18 0.18 0.19 0.21 0.23 0.24 0.23 0.22 0.21 0.24 0.32 0.31 0.26 0.20 0.16 0.14 0.12 0.11 0.15 0.17 0.16 0.16 0.14 0.21 0.21
0.01 0.03 0.08 0.12 0.14 0.17 0.17 0.13 0.12 0.11 0.10 0.11 0.10 0.09 0.10 0.11 0.12 0.13 0.15 0.17 0.21 0.23 0.21 0.20 0.19 0.20 0.24 0.29 0.28 0.29 0.27 0.20 0.12 0.11 0.09 0.14 0.19 0.20 0.20 0.17 0.15 0.17 0.18
0.01 0.02 0.04 0.10 0.13 0.16 0.15 0.12 0.11 0.10 0.10 0.09 0.08 0.08 0.08 0.09 0.09 0.11 0.13 0.17 0.21 0.27 0.31 0.29 0.24 0.24 0.30 0.31 0.24 0.24 0.29 0.24 0.14 0.08 0.05 0.14 0.29 0.34 0.28 0.24 0.18 0.18 0.20
0.00 0.01 0.03 0.09 0.13 0.15 0.14 0.12 0.10 0.10 0.09 0.09 0.07 0.08 0.08 0.07 0.07 0.07 0.08 0.12 0.18 0.23 0.28 0.30 0.28 0.29 0.29 0.26 0.21 0.22 0.34 0.36 0.21 0.05 0.05 0.08 0.22 0.47 0.31 0.28 0.23 0.21 0.20
0.00 0.01 0.03 0.09 0.13 0.15 0.14 0.13 0.11 0.10 0.09 0.09 0.09 0.09 0.09 0.07 0.06 0.05 0.06 0.07 0.09 0.14 0.20 0.24 0.25 0.28 0.31 0.29 0.24 0.28 0.42 0.49 0.24 0.08 0.09 0.11 0.21 0.43 0.34 0.30 0.27 0.23 0.21
0.00 0.01 0.03 0.09 0.14 0.15 0.14 0.14 0.14 0.12 0.11 0.10 0.11 0.12 0.11 0.09 0.07 0.06 0.07 0.07 0.05 0.06 0.11 0.17 0.22 0.26 0.31 0.31 0.31 0.40 0.52 0.51 0.25 0.23 0.15 0.12 0.23 0.41 0.41 0.36 0.31 0.27 0.26
0.00 0.01 0.04 0.10 0.13 0.14 0.14 0.15 0.16 0.15 0.14 0.13 0.14 0.14 0.12 0.10 0.10 0.11 0.11 0.10 0.07 0.06 0.07 0.09 0.14 0.21 0.25 0.26 0.32 0.45 0.51 0.34 0.13 0.10 0.08 0.10 0.21 0.42 0.60 0.55 0.42 0.35 0.32
0.00 0.01 0.03 0.07 0.10 0.12 0.13 0.15 0.16 0.16 0.16 0.15 0.15 0.14 0.11 0.08 0.10 0.12 0.14 0.12 0.10 0.09 0.08 0.07 0.08 0.11 0.14 0.18 0.25 0.29 0.27 0.19 0.09 0.13 0.10 0.14 0.22 0.49 0.78 0.75 0.58 0.43 0.37
0.00 0.01 0.02 0.05 0.06 0.08 0.10 0.14 0.16 0.17 0.17 0.15 0.15 0.12 0.09 0.07 0.08 0.10 0.09 0.08 0.09 0.10 0.10 0.07 0.08 0.08 0.08 0.10 0.13 0.15 0.13 0.11 0.06 0.12 0.18 0.19 0.19 0.48 0.85 0.85 0.73 0.57 0.48
0.01 0.01 0.02 0.04 0.04 0.06 0.07 0.10 0.15 0.16 0.16 0.14 0.12 0.10 0.08 0.05 0.05 0.05 0.05 0.05 0.07 0.08 0.08 0.09 0.09 0.08 0.07 0.04 0.05 0.07 0.06 0.04 0.09 0.16 0.19 0.16 0.20 0.49 0.85 0.91 0.82 0.70 0.62
0.01 0.01 0.02 0.03 0.04 0.05 0.05 0.08 0.12 0.12 0.12 0.11 0.09 0.09 0.08 0.07 0.06 0.05 0.05 0.06 0.08 0.08 0.08 0.11 0.11 0.08 0.06 0.06 0.08 0.09 0.04 0.03 0.08 0.09 0.10 0.10 0.24 0.51 0.81 0.93 0.92 0.82 0.77
0.00 0.01 0.02 0.03 0.04 0.04 0.04 0.06 0.08 0.09 0.11 0.11 0.11 0.13 0.16 0.17 0.14 0.12 0.13 0.13 0.11 0.10 0.14 0.17 0.17 0.15 0.18 0.19 0.21 0.16 0.10 0.07 0.06 0.06 0.05 0.06 0.15 0.36 0.67 0.88 0.97 0.97 0.97
0.00 0.01 0.01 0.03 0.04 0.04 0.03 0.04 0.06 0.07 0.08 0.11 0.12 0.13 0.16 0.19 0.19 0.18 0.19 0.18 0.16 0.16 0.18 0.22 0.24 0.23 0.21 0.20 0.23 0.21 0.20 0.16 0.10 0.08 0.05 0.06 0.08 0.16 0.33 0.58 0.81 0.98 1.06
0.00 0.00 0.01 0.02 0.04 0.04 0.04 0.04 0.04 0.05 0.05 0.06 0.07 0.08 0.09 0.11 0.13 0.13 0.12 0.11 0.12 0.13 0.14 0.16 0.17 0.19 0.20 0.19 0.19 0.21 0.23 0.22 0.18 0.15 0.12 0.11 0.08 0.10 0.17 0.30 0.52 0.83 1.04
0.00 0.00 0.00 0.01 0.03 0.04 0.03 0.04 0.03 0.04 0.04 0.04 0.04 0.04 0.04 0.04 0.05 0.04 0.04 0.03 0.03 0.04 0.05 0.05 0.05 0.06 0.09 0.13 0.14 0.14 0.15 0.17 0.21 0.23 0.22 0.21 0.13 0.11 0.14 0.21 0.34 0.56 0.86
0.00 0.00 0.00 0.01 0.02 0.04 0.04 0.04 0.03 0.04 0.04 0.04 0.03 0.02 0.02 0.02 0.02 0.02 0.02 0.02 0.01 0.01 0.01 0.02 0.02 0.02 0.03 0.07 0.10 0.12 0.10 0.12 0.16 0.23 0.25 0.26 0.23 0.18 0.17 0.20 0.27 0.39 0.62
0.01 0.01 0.00 0.01 0.02 0.03 0.04 0.04 0.04 0.04 0.04 0.04 0.04 0.03 0.02 0.02 0.01 0.02 0.02 0.03 0.02 0.02 0.02 0.03 0.03 0.04 0.06 0.07 0.11 0.15 0.14 0.13 0.15 0.21 0.27 0.27 0.27 0.24 0.21 0.20 0.26 0.37 0.51
0.01 0.01 0.01 0.01 0.01 0.02 0.04 0.04 0.04 0.05 0.05 0.05 0.05 0.04 0.04 0.03 0.02 0.02 0.03 0.04 0.04 0.05 0.05 0.05 0.04 0.07 0.09 0.11 0.15 0.17 0.19 0.18 0.16 0.19 0.24 0.30 0.32 0.30 0.31 0.24 0.23 0.32 0.45
0.00 0.01 0.01 0.01 0.01 0.02 0.04 0.06 0.06 0.06 0.05 0.05 0.05 0.05 0.04 0.04 0.04 0.04 0.04 0.04 0.04 0.05 0.06 0.07 0.08 0.10 0.11 0.13 0.14 0.15 0.20 0.24 0.24 0.23 0.29 0.40 0.40 0.34 0.34 0.34 0.29 0.24 0.28
0.00 0.01 0.01 0.02 0.02 0.02 0.04 0.06 0.06 0.05 0.05 0.04 0.04 0.04 0.04 0.04 0.04 0.05 0.05 0.04 0.05 0.06 0.07 0.07 0.07 0.07 0.07 0.08 0.11 0.12 0.14 0.17 0.18 0.19 0.24 0.38 0.51 0.54 0.49 0.48 0.47 0.39 0.30
0.00 0.00 0.01 0.01 0.01 0.01 0.02 0.02 0.02 0.02 0.03 0.02 0.03 0.03 0.03 0.03 0.03 0.04 0.04 0.04 0.04 0.04 0.03 0.03 0.04 0.05 0.04 0.03 0.08 0.13 0.10 0.09 0.13 0.14 0.13 0.22 0.34 0.43 0.47 0.50 0.55 0.57 0.48
0.00 0.00 0.00 0.01 0.01 0.01 0.01 0.02 0.02 0.03 0.03 0.02 0.02 0.02 0.02 0.02 0.02 0.02 0.02 0.03 0.03 0.02 0.03 0.03 0.03 0.05 0.07 0.05 0.07 0.22 0.29 0.18 0.11 0.06 0.08 0.13 0.16 0.20 0.25 0.32 0.41 0.46 0.53
0.00 0.00 0.00 0.00 0.00 0.01 0.01 0.02 0.02 0.02 0.01 0.01 0.01 0.01 0.02 0.02 0.03 0.03 0.03 0.03 0.03 0.03 0.03 0.04 0.04 0.06 0.10 0.10 0.07 0.11 0.20 0.24 0.29 0.16 0.04 0.03 0.03 0.05 0.07 0.12 0.20 0.28 0.37
0.00 0.00 0.00 0.00 0.00 0.01 0.01 0.01 0.01 0.01 0.01 0.00 0.01 0.01 0.02 0.02 0.02 0.02 0.03 0.03 0.03 0.04 0.05 0.05 0.06 0.07 0.10 0.14 0.15 0.14 0.14 0.13 0.19 0.29 0.13 0.03 0.04 0.04 0.04 0.06 0.08 0.13 0.21
0.00 0.00 0.00 0.01 0.01 0.01 0.01 0.01 0.01 0.01 0.01 0.01 0.01 0.02 0.02 0.02 0.03 0.02 0.03 0.03 0.04 0.04 0.05 0.07 0.08 0.09 0.11 0.14 0.17 0.19 0.24 0.26 0.21 0.27 0.23 0.07 0.03 0.03 0.04 0.05 0.05 0.07 0.13

GEFSSE_prec_meanprecacc_162.txt.gz
Total_Precipitation_Accumulation
0.01 0.04 0.19 0.23 0.20 0.19 0.20 0.19 0.17 0.16 0.18 0.20 0.20 0.21 0.21 0.21 0.21 0.20 0.20 0.21 0.20 0.22 0.27 0.29 0.29 0.29 0.27 0.27 0.30 0.31 0.28 0.27 0.22 0.18 0.19 0.22 0.20 0.17 0.15 0.14 0.11 0.18 0.23
0.02 0.05 0.15 0.17 0.17 0.19 0.19 0.16 0.14 0.14 0.15 0.16 0.14 0.14 0.14 0.15 0.17 0.18 0.19 0.19 0.20 0.22 0.24 0.25 0.24 0.23 0.22 0.25 0.33 0.32 0.26 0.20 0.16 0.14 0.12 0.11 0.16 0.18 0.17 0.17 0.15 0.22 0.22
0.01 0.04 0.10 0.15 0.16 0.19 0.18 0.14 0.13 0.12 0.11 0.11 0.10 0.10 0.10 0.12 0.13 0.14 0.16 0.18 0.22 0.24 0.23 0.22 0.20 0.21 0.24 0.29 0.29 0.29 0.27 0.20 0.12 0.11 0.09 0.14 0.19 0.21 0.21 0.18 0.16 0.19 0.20
0.01 0.02 0.05 0.12 0.15 0.18 0.16 0.13 0.12 0.11 0.10 0.10 0.09 0.08 0.09 0.10 0.10 0.11 0.13 0.18 0.22 0.28 0.33 0.30 0.24 0.25 0.30 0.32 0.24 0.24 0.29 0.25 0.14 0.08 0.05 0.15 0.29 0.35 0.28 0.24 0.19 0.19 0.21
0.00 0.01 0.04 0.11 0.15 0.17 0.15 0.14 0.11 0.10 0.10 0.09 0.08 0.08 0.08 0.08 0.08 0.08 0.09 0.13 0.18 0.24 0.29 0.31 0.28 0.29 0.29 0.26 0.21 0.22 0.34 0.36 0.21 0.05 0.05 0.08 0.23 0.48 0.31 0.28 0.24 0.21 0.21
0.01 0.01 0.04 0.11 0.16 0.17 0.15 0.14 0.12 0.10 0.10 0.10 0.10 0.10 0.10 0.08 0.07 0.06 0.06 0.07 0.09 0.14 0.21 0.24 0.25 0.28 0.31 0.29 0.24 0.28 0.42 0.49 0.24 0.08 0.09 0.11 0.22 0.44 0.34 0.31 0.28 0.24 0.22
0.01 0.02 0.04 0.12 0.16 0.17 0.16 0.15 0.15 0.13 0.12 0.11 0.12 0.13 0.12 0.10 0.08 0.07 0.07 0.07 0.06 0.06 0.11 0.17 0.23 0.26 0.31 0.32 0.31 0.40 0.52 0.51 0.25 0.23 0.15 0.12 0.24 0.42 0.42 0.36 0.32 0.28 0.27
0.01 0.02 0.05 0.12 0.16 0.16 0.15 0.16 0.17 0.16 0.15 0.14 0.15 0.15 0.13 0.11 0.11 0.11 0.11 0.10 0.08 0.06 0.07 0.09 0.15 0.21 0.25 0.26 0.33 0.45 0.51 0.34 0.13 0.10 0.08 0.10 0.22 0.42 0.61 0.55 0.43 0.36 0.33
0.01 0.02 0.05 0.09 0.12 0.14 0.15 0.16 0.17 0.17 0.17 0.15 0.16 0.15 0.12 0.09 0.10 0.13 0.14 0.12 0.10 0.09 0.08 0.07 0.09 0.12 0.15 0.19 0.25 0.29 0.27 0.19 0.09 0.13 0.10 0.14 0.22 0.50 0.79 0.76 0.58 0.44 0.38
0.01 0.02 0.04 0.07 0.08 0.09 0.11 0.15 0.17 0.18 0.17 0.16 0.16 0.13 0.09 0.07 0.08 0.10 0.10 0.08 0.09 0.10 0.10 0.07 0.08 0.09 0.08 0.10 0.13 0.15 0.13 0.11 0.06 0.12 0.18 0.19 0.19 0.49 0.85 0.86 0.73 0.58 0.48
0.03 0.03 0.04 0.06 0.06 0.07 0.08 0.11 0.15 0.17 0.16 0.15 0.13 0.11 0.09 0.05 0.05 0.06 0.05 0.05 0.07 0.09 0.08 0.09 0.09 0.08 0.07 0.04 0.05 0.07 0.06 0.04 0.09 0.16 0.19 0.16 0.21 0.50 0.86 0.92 0.83 0.70 0.62
0.02 0.03 0.04 0.05 0.05 0.06 0.06 0.09 0.13 0.12 0.12 0.11 0.10 0.09 0.08 0.07 0.06 0.05 0.05 0.06 0.08 0.09 0.08 0.11 0.11 0.08 0.06 0.06 0.08 0.09 0.04 0.03 0.08 0.09 0.10 0.10 0.24 0.51 0.82 0.93 0.92 0.82 0.77
0.01 0.02 0.03 0.04 0.05 0.05 0.05 0.06 0.09 0.10 0.11 0.12 0.11 0.13 0.16 0.17 0.14 0.12 0.13 0.13 0.11 0.10 0.14 0.17 0.17 0.15 0.18 0.19 0.21 0.16 0.10 0.07 0.06 0.06 0.05 0.07 0.15 0.36 0.67 0.88 0.98 0.97 0.97
0.01 0.01 0.02 0.04 0.05 0.05 0.03 0.05 0.06 0.07 0.08 0.11 0.12 0.13 0.16 0.19 0.19 0.18 0.19 0.18 0.16 0.16 0.18 0.22 0.24 0.23 0.21 0.20 0.23 0.21 0.20 0.16 0.10 0.08 0.06 0.06 0.08 0.16 0.34 0.58 0.81 0.98 1.06
0.01 0.01 0.01 0.03 0.05 0.04 0.04 0.04 0.05 0.05 0.05 0.06 0.07 0.08 0.09 0.11 0.13 0.13 0.12 0.11 0.12 0.13 0.14 0.16 0.17 0.19 0.20 0.19 0.19 0.21 0.23 0.22 0.18 0.15 0.12 0.11 0.08 0.10 0.17 0.30 0.52 0.83 1.04
0.02 0.02 0.01 0.02 0.04 0.04 0.04 0.04 0.04 0.04 0.04 0.04 0.04 0.04 0.04 0.04 0.05 0.04 0.04 0.03 0.03 0.04 0.05 0.05 0.05 0.06 0.09 0.13 0.14 0.14 0.15 0.17 0.21 0.23 0.22 0.21 0.13 0.11 0.14 0.22 0.34 0.56 0.86
0.02 0.02 0.02 0.02 0.03 0.04 0.04 0.04 0.04 0.04 0.04 0.04 0.03 0.02 0.02 0.02 0.02 0.02 0.02 0.02 0.01 0.01 0.01 0.02 0.02 0.02 0.03 0.07 0.10 0.12 0.10 0.12 0.16 0.23 0.25 0.26 0.23 0.18 0.17 0.20 0.27 0.39 0.62
0.03 0.03 0.02 0.02 0.02 0.04 0.04 0.04 0.04 0.04 0.04 0.04 0.04 0.03 0.02 0.02 0.01 0.02 0.02 0.03 0.02 0.02 0.02 0.03 0.03 0.04 0.06 0.07 0.11 0.15 0.14 0.13 0.15 0.21 0.27 0.27 0.27 0.24 0.21 0.20 0.26 0.37 0.51
0.03 0.03 0.03 0.03 0.02 0.03 0.04 0.04 0.05 0.05 0.05 0.05 0.05 0.04 0.04 0.03 0.02 0.02 0.03 0.04 0.04 0.05 0.05 0.05 0.04 0.07 0.09 0.11 0.15 0.17 0.19 0.18 0.16 0.19 0.24 0.30 0.32 0.30 0.31 0.24 0.23 0.32 0.45
0.02 0.03 0.04 0.03 0.03 0.03 0.05 0.06 0.06 0.06 0.05 0.05 0.05 0.05 0.04 0.04 0.04 0.04 0.04 0.04 0.04 0.05 0.06 0.07 0.08 0.10 0.11 0.13 0.14 0.15 0.20 0.24 0.24 0.23 0.29 0.40 0.40 0.34 0.34 0.34 0.29 0.24 0.28
0.03 0.03 0.04 0.04 0.04 0.04 0.05 0.06 0.06 0.06 0.05 0.04 0.04 0.04 0.04 0.04 0.04 0.05 0.05 0.04 0.05 0.06 0.07 0.07 0.07 0.07 0.07 0.08 0.11 0.12 0.14 0.17 0.18 0.19 0.24 0.38 0.51 0.54 0.49 0.48 0.47 0.39 0.30
0.02 0.03 0.03 0.03 0.04 0.04 0.03 0.03 0.03 0.03 0.03 0.03 0.03 0.03 0.03 0.03 0.03 0.04 0.04 0.04 0.04 0.04 0.03 0.03 0.04 0.05 0.04 0.03 0.08 0.14 0.10 0.09 0.13 0.14 0.13 0.22 0.34 0.43 0.47 0.50 0.55 0.57 0.48
0.02 0.02 0.03 0.03 0.03 0.03 0.03 0.03 0.03 0.03 0.03 0.03 0.02 0.02 0.02 0.02 0.02 0.02 0.03 0.03 0.03 0.02 0.03 0.03 0.03 0.06 0.07 0.05 0.07 0.22 0.30 0.19 0.11 0.06 0.08 0.13 0.16 0.20 0.25 0.32 0.41 0.47 0.54
0.02 0.02 0.02 0.03 0.03 0.03 0.04 0.04 0.03 0.02 0.02 0.01 0.01 0.01 0.02 0.02 0.03 0.03 0.03 0.03 0.03 0.03 0.04 0.04 0.04 0.06 0.10 0.11 0.08 0.11 0.20 0.24 0.29 0.16 0.04 0.03 0.03 0.05 0.07 0.12 0.20 0.28 0.37
0.02 0.02 0.02 0.03 0.03 0.03 0.03 0.03 0.03 0.01 0.01 0.01 0.01 0.01 0.02 0.02 0.02 0.02 0.03 0.03 0.03 0.04 0.05 0.05 0.06 0.08 0.11 0.15 0.15 0.14 0.14 0.13 0.19 0.29 0.14 0.03 0.04 0.04 0.04 0.06 0.08 0.13 0.21
0.01 0.02 0.03 0.03 0.03 0.04 0.03 0.02 0.03 0.02 0.01 0.01 0.01 0.02 0.02 0.02 0.03 0.02 0.03 0.03 0.04 0.04 0.05 0.07 0.08 0.10 0.11 0.14 0.17 0.19 0.24 0.26 0.21 0.27 0.24 0.08 0.03 0.03 0.04 0.05 0.05 0.07 0.13